Time,TemperatureF,DewpointF,PressureIn,WindDirection,WindDirectionDegrees,WindSpeedMPH,WindSpeedGustMPH,Humidity,HourlyPrecipIn,Conditions,Clouds,dailyrainin,SoftwareType,DateUTC
2013-06-27 00:04:00,72.9,63.3,28.95,SW,225,0.0,0.0,72,0.00,,,0.00,meteohub,2013-06-27 05:04:00,
2013-06-27 00:09:00,72.7,63.1,28.95,WSW,248,0.0,0.0,72,0.00,,,0.00,meteohub,2013-06-27 05:09:00,
2013-06-27 00:15:00,72.7,63.5,28.95,SW,225,0.0,0.0,73,0.00,,,0.00,meteohub,2013-06-27 05:15:00,
2013-06-27 00:20:00,72.7,63.5,28.95,SW,225,0.0,0.0,73,0.00,,,0.00,meteohub,2013-06-27 05:20:00,
2013-06-27 00:25:00,72.9,64.0,28.98,West,270,0.0,0.0,74,0.00,,,0.00,meteohub,2013-06-27 05:25:00,
2013-06-27 00:30:00,72.7,63.9,28.98,South,180,0.0,0.0,74,0.00,,,0.00,meteohub,2013-06-27 05:30:00,
2013-06-27 00:35:00,72.5,63.7,28.98,South,180,0.0,0.0,74,0.00,,,0.00,meteohub,2013-06-27 05:35:00,
2013-06-27 00:40:00,72.5,63.7,28.98,SW,225,0.0,0.0,74,0.00,,,0.00,meteohub,2013-06-27 05:40:00,
2013-06-27 00:45:00,72.3,64.0,28.98,SW,225,0.0,0.0,75,0.00,,,0.00,meteohub,2013-06-27 05:45:00,
2013-06-27 00:51:00,72.0,63.7,28.98,SW,225,0.0,0.0,75,0.00,,,0.00,meteohub,2013-06-27 05:51:00,
2013-06-27 00:56:00,71.8,63.9,28.95,SSW,202,0.0,0.0,76,0.00,,,0.00,meteohub,2013-06-27 05:56:00,
2013-06-27 01:01:00,71.4,64.9,28.95,SW,225,2.0,0.0,80,0.00,,,0.00,meteohub,2013-06-27 06:01:00,
2013-06-27 01:06:00,71.1,64.6,28.95,SW,225,0.0,4.0,80,0.00,,,0.00,meteohub,2013-06-27 06:06:00,
2013-06-27 01:11:00,70.7,64.6,28.95,SW,225,0.0,4.0,81,0.00,,,0.00,meteohub,2013-06-27 06:11:00,
2013-06-27 01:16:00,70.3,64.2,28.95,SW,225,0.0,4.0,81,0.00,,,0.00,meteohub,2013-06-27 06:16:00,
2013-06-27 01:21:00,70.2,64.0,28.95,SW,225,0.0,1.0,81,0.00,,,0.00,meteohub,2013-06-27 06:21:00,
2013-06-27 01:27:00,70.0,63.9,28.98,SW,225,0.0,0.0,81,0.00,,,0.00,meteohub,2013-06-27 06:27:00,
2013-06-27 01:32:00,70.0,64.2,28.98,SW,225,0.0,0.0,82,0.00,,,0.00,meteohub,2013-06-27 06:32:00,
2013-06-27 01:37:00,69.6,63.9,28.98,SW,225,0.0,0.0,82,0.00,,,0.00,meteohub,2013-06-27 06:37:00,
2013-06-27 01:42:00,69.3,63.9,28.98,South,180,0.0,0.0,83,0.00,,,0.00,meteohub,2013-06-27 06:42:00,
2013-06-27 01:47:00,69.3,63.9,28.98,SW,225,0.0,0.0,83,0.00,,,0.00,meteohub,2013-06-27 06:47:00,
2013-06-27 01:52:00,69.4,64.4,28.98,SW,225,0.0,0.0,84,0.00,,,0.00,meteohub,2013-06-27 06:52:00,
2013-06-27 01:57:00,69.3,64.6,28.98,SW,225,0.0,0.0,85,0.00,,,0.00,meteohub,2013-06-27 06:57:00,
2013-06-27 02:02:00,69.3,64.9,28.98,SSW,202,0.0,0.0,86,0.00,,,0.00,meteohub,2013-06-27 07:02:00,
2013-06-27 02:07:00,69.3,64.6,28.98,SSW,202,0.0,0.0,85,0.00,,,0.00,meteohub,2013-06-27 07:07:00,
2013-06-27 02:12:00,69.1,64.4,28.98,SSW,202,0.0,0.0,85,0.00,,,0.00,meteohub,2013-06-27 07:12:00,
2013-06-27 02:17:00,69.3,65.5,28.98,SSW,202,3.0,0.0,88,0.00,,,0.00,meteohub,2013-06-27 07:17:00,
2013-06-27 02:22:00,69.3,65.8,28.98,WSW,248,3.0,4.0,89,0.00,,,0.00,meteohub,2013-06-27 07:22:00,
2013-06-27 02:27:00,69.3,65.5,29.01,SW,225,0.0,4.0,88,0.00,,,0.00,meteohub,2013-06-27 07:27:00,
2013-06-27 02:32:00,69.3,65.5,29.01,South,180,0.0,4.0,88,0.00,,,0.00,meteohub,2013-06-27 07:32:00,
2013-06-27 02:37:00,69.1,65.3,29.01,SSW,202,0.0,3.0,88,0.00,,,0.00,meteohub,2013-06-27 07:37:00,
2013-06-27 02:42:00,69.1,65.3,28.98,SW,225,0.0,1.0,88,0.00,,,0.00,meteohub,2013-06-27 07:42:00,
2013-06-27 02:47:00,69.1,65.3,28.98,SSW,202,0.0,0.0,88,0.00,,,0.00,meteohub,2013-06-27 07:47:00,
2013-06-27 02:52:00,68.9,65.5,28.98,SW,225,0.0,0.0,89,0.00,,,0.00,meteohub,2013-06-27 07:52:00,
2013-06-27 02:57:00,68.9,65.5,28.98,SW,225,0.0,0.0,89,0.00,,,0.00,meteohub,2013-06-27 07:57:00,
2013-06-27 03:02:00,69.1,66.0,28.98,SSW,202,0.0,3.0,90,0.00,,,0.00,meteohub,2013-06-27 08:02:00,
2013-06-27 03:07:00,69.1,65.7,28.98,SW,225,0.0,3.0,89,0.00,,,0.00,meteohub,2013-06-27 08:07:00,
2013-06-27 03:12:00,69.1,65.7,28.98,SSW,202,0.0,3.0,89,0.00,,,0.00,meteohub,2013-06-27 08:12:00,
2013-06-27 03:17:00,69.1,65.7,28.98,SW,225,0.0,2.0,89,0.00,,,0.00,meteohub,2013-06-27 08:17:00,
2013-06-27 03:22:00,69.1,65.7,28.98,SSW,202,2.0,2.0,89,0.00,,,0.00,meteohub,2013-06-27 08:22:00,
2013-06-27 03:27:00,68.9,65.5,28.98,SW,225,0.0,3.0,89,0.00,,,0.00,meteohub,2013-06-27 08:27:00,
2013-06-27 03:32:00,68.7,65.3,28.98,SSW,202,0.0,3.0,89,0.00,,,0.00,meteohub,2013-06-27 08:32:00,
2013-06-27 03:37:00,68.7,65.7,28.98,SSW,202,0.0,2.0,90,0.00,,,0.00,meteohub,2013-06-27 08:37:00,
2013-06-27 03:42:00,68.5,65.5,28.98,SW,225,0.0,2.0,90,0.00,,,0.00,meteohub,2013-06-27 08:42:00,
2013-06-27 03:47:00,68.5,65.8,28.98,SW,225,0.0,2.0,91,0.00,,,0.00,meteohub,2013-06-27 08:47:00,
2013-06-27 03:52:00,68.4,65.7,28.98,SW,225,0.0,2.0,91,0.00,,,0.00,meteohub,2013-06-27 08:52:00,
2013-06-27 03:57:00,68.4,65.7,28.98,SSW,202,1.0,2.0,91,0.00,,,0.00,meteohub,2013-06-27 08:57:00,
2013-06-27 04:02:00,68.2,65.8,28.98,SSW,202,1.0,3.0,92,0.00,,,0.00,meteohub,2013-06-27 09:02:00,
2013-06-27 04:07:00,68.2,65.8,28.98,SW,225,2.0,3.0,92,0.00,,,0.00,meteohub,2013-06-27 09:07:00,
2013-06-27 04:12:00,68.2,65.8,28.98,SSW,202,0.0,3.0,92,0.00,,,0.00,meteohub,2013-06-27 09:12:00,
2013-06-27 04:17:00,68.0,65.7,28.98,SW,225,0.0,3.0,92,0.00,,,0.00,meteohub,2013-06-27 09:17:00,
2013-06-27 04:22:00,67.8,65.5,28.98,SSW,202,0.0,3.0,92,0.00,,,0.00,meteohub,2013-06-27 09:22:00,
2013-06-27 04:27:00,67.8,65.5,28.98,SW,225,0.0,1.0,92,0.00,,,0.00,meteohub,2013-06-27 09:27:00,
2013-06-27 04:32:00,67.5,65.1,28.98,SSW,202,0.0,0.0,92,0.00,,,0.00,meteohub,2013-06-27 09:32:00,
2013-06-27 04:37:00,67.5,65.1,28.98,South,180,0.0,0.0,92,0.00,,,0.00,meteohub,2013-06-27 09:37:00,
2013-06-27 04:42:00,67.5,65.1,28.98,SSW,202,2.0,2.0,92,0.00,,,0.00,meteohub,2013-06-27 09:42:00,
2013-06-27 04:47:00,67.5,65.3,28.98,SW,225,1.0,2.0,93,0.00,,,0.00,meteohub,2013-06-27 09:47:00,
2013-06-27 04:52:00,67.5,65.7,28.98,SW,225,0.0,2.0,94,0.00,,,0.00,meteohub,2013-06-27 09:52:00,
2013-06-27 04:57:00,67.5,65.7,28.98,WSW,248,0.0,1.0,94,0.00,,,0.00,meteohub,2013-06-27 09:57:00,
2013-06-27 05:02:00,67.3,65.5,28.98,WSW,248,0.0,2.0,94,0.00,,,0.00,meteohub,2013-06-27 10:02:00,
2013-06-27 05:07:00,67.5,65.7,28.98,SW,225,0.0,2.0,94,0.00,,,0.00,meteohub,2013-06-27 10:07:00,
2013-06-27 05:12:00,67.6,65.8,28.95,SW,225,2.0,2.0,94,0.00,,,0.00,meteohub,2013-06-27 10:12:00,
2013-06-27 05:17:00,68.4,66.2,28.95,SW,225,1.0,2.0,93,0.00,,,0.00,meteohub,2013-06-27 10:17:00,
2013-06-27 05:22:00,68.5,66.4,28.95,SW,225,3.0,3.0,93,0.00,,,0.00,meteohub,2013-06-27 10:22:00,
2013-06-27 05:27:00,69.1,66.4,28.95,WSW,248,0.0,3.0,91,0.00,,,0.00,meteohub,2013-06-27 10:27:00,
2013-06-27 05:32:00,69.3,66.2,28.95,SW,225,1.0,3.0,90,0.00,,,0.00,meteohub,2013-06-27 10:32:00,
2013-06-27 05:37:00,69.6,66.2,28.95,SW,225,1.0,3.0,89,0.00,,,0.00,meteohub,2013-06-27 10:37:00,
2013-06-27 05:42:00,69.8,66.0,28.95,West,270,0.0,3.0,88,0.00,,,0.00,meteohub,2013-06-27 10:42:00,
2013-06-27 05:47:00,70.0,66.0,28.95,SW,225,2.0,3.0,87,0.00,,,0.00,meteohub,2013-06-27 10:47:00,
2013-06-27 05:52:00,70.2,65.8,28.95,SW,225,2.0,4.0,86,0.00,,,0.00,meteohub,2013-06-27 10:52:00,
2013-06-27 05:57:00,70.2,65.5,28.98,West,270,4.0,4.0,85,0.00,,,0.00,meteohub,2013-06-27 10:57:00,
2013-06-27 06:02:00,70.0,65.3,28.98,SW,225,2.0,4.0,85,0.00,,,0.00,meteohub,2013-06-27 11:02:00,
2013-06-27 06:07:00,70.0,65.3,28.98,SW,225,3.0,4.0,85,0.00,,,0.00,meteohub,2013-06-27 11:07:00,
2013-06-27 06:12:00,70.2,65.5,28.95,West,270,3.0,5.0,85,0.00,,,0.00,meteohub,2013-06-27 11:12:00,
2013-06-27 06:17:00,70.2,65.5,28.95,South,180,0.0,5.0,85,0.00,,,0.00,meteohub,2013-06-27 11:17:00,
2013-06-27 06:22:00,70.2,65.5,28.95,WSW,248,1.0,5.0,85,0.00,,,0.00,meteohub,2013-06-27 11:22:00,
2013-06-27 06:27:00,70.2,65.1,28.98,SW,225,0.0,3.0,84,0.00,,,0.00,meteohub,2013-06-27 11:27:00,
2013-06-27 06:32:00,70.2,65.1,28.98,SW,225,1.0,2.0,84,0.00,,,0.00,meteohub,2013-06-27 11:32:00,
2013-06-27 06:38:00,70.5,65.5,28.98,SW,225,0.0,3.0,84,0.00,,,0.00,meteohub,2013-06-27 11:38:00,
2013-06-27 06:43:00,70.9,65.8,28.95,NNE,22,0.0,3.0,84,0.00,,,0.00,meteohub,2013-06-27 11:43:00,
2013-06-27 06:48:00,71.2,65.8,28.95,West,270,0.0,3.0,83,0.00,,,0.00,meteohub,2013-06-27 11:48:00,
2013-06-27 06:53:00,71.6,65.5,28.95,NNW,338,0.0,1.0,81,0.00,,,0.00,meteohub,2013-06-27 11:53:00,
2013-06-27 06:58:00,71.8,65.7,28.98,WSW,248,0.0,2.0,81,0.00,,,0.00,meteohub,2013-06-27 11:58:00,
2013-06-27 07:03:00,72.3,65.5,28.98,SW,225,3.0,5.0,79,0.00,,,0.00,meteohub,2013-06-27 12:03:00,
2013-06-27 07:08:00,72.5,65.3,28.98,WSW,248,0.0,5.0,78,0.00,,,0.00,meteohub,2013-06-27 12:08:00,
2013-06-27 07:14:00,72.5,65.3,28.98,NNW,338,0.0,5.0,78,0.00,,,0.00,meteohub,2013-06-27 12:14:00,
2013-06-27 07:19:00,72.7,65.5,28.98,West,270,1.0,4.0,78,0.00,,,0.00,meteohub,2013-06-27 12:19:00,
2013-06-27 07:24:00,72.9,65.3,28.98,SW,225,0.0,3.0,77,0.00,,,0.00,meteohub,2013-06-27 12:24:00,
2013-06-27 07:29:00,73.0,65.5,28.98,SSW,202,0.0,3.0,77,0.00,,,0.00,meteohub,2013-06-27 12:29:00,
2013-06-27 07:34:00,73.2,65.1,28.98,NE,45,0.0,4.0,76,0.00,,,0.00,meteohub,2013-06-27 12:34:00,
2013-06-27 07:39:00,73.6,64.8,28.98,WSW,248,2.0,4.0,74,0.00,,,0.00,meteohub,2013-06-27 12:39:00,
2013-06-27 07:44:00,73.8,64.9,28.98,SW,225,2.0,4.0,74,0.00,,,0.00,meteohub,2013-06-27 12:44:00,
2013-06-27 07:50:00,73.8,64.9,28.98,West,270,0.0,4.0,74,0.00,,,0.00,meteohub,2013-06-27 12:50:00,
2013-06-27 07:55:00,73.9,64.4,28.98,WSW,248,0.0,4.0,72,0.00,,,0.00,meteohub,2013-06-27 12:55:00,
2013-06-27 08:00:00,74.1,64.0,28.98,NNW,338,2.0,7.0,71,0.00,,,0.00,meteohub,2013-06-27 13:00:00,
2013-06-27 08:05:00,74.3,64.8,28.98,NNW,338,0.0,7.0,72,0.00,,,0.00,meteohub,2013-06-27 13:05:00,
2013-06-27 08:10:00,74.5,64.0,28.98,West,270,3.0,7.0,70,0.00,,,0.00,meteohub,2013-06-27 13:10:00,
2013-06-27 08:15:00,74.7,64.6,28.98,West,270,0.0,8.0,71,0.00,,,0.00,meteohub,2013-06-27 13:15:00,
2013-06-27 08:20:00,75.2,64.8,28.98,NNW,338,2.0,8.0,70,0.00,,,0.00,meteohub,2013-06-27 13:20:00,
2013-06-27 08:26:00,75.4,64.6,28.98,SSW,202,1.0,7.0,69,0.00,,,0.00,meteohub,2013-06-27 13:26:00,
2013-06-27 08:31:00,75.4,64.0,28.98,WSW,248,6.0,6.0,68,0.00,,,0.00,meteohub,2013-06-27 13:31:00,
2013-06-27 08:36:00,75.4,63.7,28.98,South,180,3.0,6.0,67,0.00,,,0.00,meteohub,2013-06-27 13:36:00,
2013-06-27 08:41:00,75.7,64.4,28.98,SW,225,0.0,7.0,68,0.00,,,0.00,meteohub,2013-06-27 13:41:00,
2013-06-27 08:46:00,76.3,64.9,28.98,SSW,202,2.0,7.0,68,0.00,,,0.00,meteohub,2013-06-27 13:46:00,
2013-06-27 08:51:00,76.8,64.9,28.98,NW,315,1.0,7.0,67,0.00,,,0.00,meteohub,2013-06-27 13:51:00,
2013-06-27 08:56:00,77.4,64.8,28.95,SW,225,0.0,7.0,65,0.00,,,0.00,meteohub,2013-06-27 13:56:00,
2013-06-27 09:02:00,77.4,63.3,28.95,NW,315,0.0,6.0,62,0.00,,,0.00,meteohub,2013-06-27 14:02:00,
2013-06-27 09:07:00,77.9,64.2,28.95,NNW,338,3.0,6.0,63,0.00,,,0.00,meteohub,2013-06-27 14:07:00,
2013-06-27 09:12:00,78.3,64.6,28.98,NNE,22,6.0,6.0,63,0.00,,,0.00,meteohub,2013-06-27 14:12:00,
2013-06-27 09:17:00,78.4,64.8,28.98,SSW,202,1.0,6.0,63,0.00,,,0.00,meteohub,2013-06-27 14:17:00,
2013-06-27 09:22:00,78.4,63.9,28.98,North,0,2.0,6.0,61,0.00,,,0.00,meteohub,2013-06-27 14:22:00,
2013-06-27 09:27:00,78.4,63.0,28.98,WNW,292,0.0,6.0,59,0.00,,,0.00,meteohub,2013-06-27 14:27:00,
2013-06-27 09:32:00,79.0,64.8,28.98,WNW,292,3.0,6.0,62,0.00,,,0.00,meteohub,2013-06-27 14:32:00,
2013-06-27 09:37:00,79.7,65.1,28.98,South,180,5.0,6.0,61,0.00,,,0.00,meteohub,2013-06-27 14:37:00,
2013-06-27 09:42:00,80.4,65.3,28.95,SW,225,1.0,6.0,60,0.00,,,0.00,meteohub,2013-06-27 14:42:00,
2013-06-27 09:47:00,81.0,65.3,28.95,NNW,338,2.0,5.0,59,0.00,,,0.00,meteohub,2013-06-27 14:47:00,
2013-06-27 09:52:00,81.5,63.3,28.95,West,270,0.0,5.0,54,0.00,,,0.00,meteohub,2013-06-27 14:52:00,
2013-06-27 09:57:00,82.0,62.6,28.98,NNW,338,0.0,7.0,52,0.00,,,0.00,meteohub,2013-06-27 14:57:00,
2013-06-27 10:02:00,82.8,62.8,28.98,WNW,292,1.0,7.0,51,0.00,,,0.00,meteohub,2013-06-27 15:02:00,
2013-06-27 10:07:00,82.8,61.7,28.98,WNW,292,2.0,7.0,49,0.00,,,0.00,meteohub,2013-06-27 15:07:00,
2013-06-27 10:12:00,83.7,63.0,28.98,West,270,4.0,7.0,50,0.00,,,0.00,meteohub,2013-06-27 15:12:00,
2013-06-27 10:17:00,83.7,61.9,28.98,NNE,22,6.0,6.0,48,0.00,,,0.00,meteohub,2013-06-27 15:17:00,
2013-06-27 10:22:00,83.8,60.8,28.98,WSW,248,0.0,6.0,46,0.00,,,0.00,meteohub,2013-06-27 15:22:00,
2013-06-27 10:27:00,83.7,60.1,28.98,SSE,158,5.0,6.0,45,0.00,,,0.00,meteohub,2013-06-27 15:27:00,
2013-06-27 10:32:00,83.8,60.3,28.98,WNW,292,6.0,6.0,45,0.00,,,0.00,meteohub,2013-06-27 15:32:00,
2013-06-27 10:37:00,84.4,60.8,28.98,East,90,0.0,6.0,45,0.00,,,0.00,meteohub,2013-06-27 15:37:00,
2013-06-27 10:42:00,84.9,60.6,28.95,SSW,202,2.0,6.0,44,0.00,,,0.00,meteohub,2013-06-27 15:42:00,
2013-06-27 10:47:00,85.3,60.3,28.95,West,270,2.0,6.0,43,0.00,,,0.00,meteohub,2013-06-27 15:47:00,
2013-06-27 10:52:00,85.1,59.4,28.95,West,270,1.0,7.0,42,0.00,,,0.00,meteohub,2013-06-27 15:52:00,
2013-06-27 10:57:00,86.5,61.3,28.95,North,0,2.0,9.0,43,0.00,,,0.00,meteohub,2013-06-27 15:57:00,
2013-06-27 11:02:00,86.5,60.8,28.95,West,270,3.0,9.0,42,0.00,,,0.00,meteohub,2013-06-27 16:02:00,
2013-06-27 11:07:00,87.1,60.4,28.95,NNW,338,3.0,9.0,41,0.00,,,0.00,meteohub,2013-06-27 16:07:00,
2013-06-27 11:13:00,86.9,60.4,28.98,NE,45,3.0,8.0,41,0.00,,,0.00,meteohub,2013-06-27 16:13:00,
2013-06-27 11:18:00,87.1,59.9,28.98,WNW,292,2.0,6.0,40,0.00,,,0.00,meteohub,2013-06-27 16:18:00,
2013-06-27 11:23:00,87.1,59.9,28.98,WSW,248,1.0,7.0,40,0.00,,,0.00,meteohub,2013-06-27 16:23:00,
2013-06-27 11:28:00,86.5,57.9,28.98,NNE,22,4.0,8.0,38,0.00,,,0.00,meteohub,2013-06-27 16:28:00,
2013-06-27 11:33:00,86.4,57.7,28.98,WNW,292,6.0,9.0,38,0.00,,,0.00,meteohub,2013-06-27 16:33:00,
2013-06-27 11:38:00,87.1,58.5,28.98,NW,315,3.0,9.0,38,0.00,,,0.00,meteohub,2013-06-27 16:38:00,
2013-06-27 11:43:00,88.0,59.2,28.98,ENE,68,3.0,9.0,38,0.00,,,0.00,meteohub,2013-06-27 16:43:00,
2013-06-27 11:49:00,88.0,59.2,28.98,WNW,292,4.0,8.0,38,0.00,,,0.00,meteohub,2013-06-27 16:49:00,
2013-06-27 11:54:00,87.4,58.6,28.98,NNW,338,13.0,13.0,38,0.00,,,0.00,meteohub,2013-06-27 16:54:00,
2013-06-27 11:59:00,88.2,58.6,28.98,North,0,2.0,13.0,37,0.00,,,0.00,meteohub,2013-06-27 16:59:00,
2013-06-27 12:04:00,88.9,59.9,28.98,NNE,22,4.0,13.0,38,0.00,,,0.00,meteohub,2013-06-27 17:04:00,
2013-06-27 12:09:00,88.5,59.0,28.98,West,270,5.0,13.0,37,0.00,,,0.00,meteohub,2013-06-27 17:09:00,
2013-06-27 12:14:00,88.3,57.9,28.98,North,0,4.0,8.0,36,0.00,,,0.00,meteohub,2013-06-27 17:14:00,
2013-06-27 12:20:00,88.3,57.9,28.98,NNW,338,6.0,6.0,36,0.00,,,0.00,meteohub,2013-06-27 17:20:00,
2013-06-27 12:25:00,87.8,56.7,28.98,NNW,338,6.0,7.0,35,0.00,,,0.00,meteohub,2013-06-27 17:25:00,
2013-06-27 12:30:00,89.1,57.9,28.98,NNW,338,6.0,10.0,35,0.00,,,0.00,meteohub,2013-06-27 17:30:00,
2013-06-27 12:35:00,89.6,57.6,28.98,NW,315,5.0,10.0,34,0.00,,,0.00,meteohub,2013-06-27 17:35:00,
2013-06-27 12:40:00,88.7,56.7,28.98,West,270,2.0,10.0,34,0.00,,,0.00,meteohub,2013-06-27 17:40:00,
2013-06-27 12:45:00,88.3,55.6,28.98,North,0,6.0,7.0,33,0.00,,,0.00,meteohub,2013-06-27 17:45:00,
2013-06-27 12:51:00,89.2,56.3,28.98,NW,315,4.0,11.0,33,0.00,,,0.00,meteohub,2013-06-27 17:51:00,
2013-06-27 12:56:00,89.1,56.3,28.98,WSW,248,8.0,11.0,33,0.00,,,0.00,meteohub,2013-06-27 17:56:00,
2013-06-27 13:01:00,89.1,56.3,28.98,WNW,292,3.0,10.0,33,0.00,,,0.00,meteohub,2013-06-27 18:01:00,
2013-06-27 13:06:00,89.6,55.8,28.98,WNW,292,5.0,10.0,32,0.00,,,0.00,meteohub,2013-06-27 18:06:00,
2013-06-27 13:11:00,90.3,57.4,29.01,SSE,158,2.0,10.0,33,0.00,,,0.00,meteohub,2013-06-27 18:11:00,
2013-06-27 13:16:00,90.0,56.1,29.01,WSW,248,6.0,9.0,32,0.00,,,0.00,meteohub,2013-06-27 18:16:00,
2013-06-27 13:21:00,89.6,55.0,29.01,West,270,9.0,10.0,31,0.00,,,0.00,meteohub,2013-06-27 18:21:00,
2013-06-27 13:27:00,88.9,54.3,28.98,ENE,68,8.0,10.0,31,0.00,,,0.00,meteohub,2013-06-27 18:27:00,
2013-06-27 13:32:00,89.6,55.0,28.98,NNW,338,2.0,11.0,31,0.00,,,0.00,meteohub,2013-06-27 18:32:00,
2013-06-27 13:37:00,89.4,54.9,28.98,NNW,338,4.0,11.0,31,0.00,,,0.00,meteohub,2013-06-27 18:37:00,
2013-06-27 13:42:00,89.6,55.0,28.98,NNE,22,3.0,13.0,31,0.00,,,0.00,meteohub,2013-06-27 18:42:00,
2013-06-27 13:47:00,89.8,55.0,28.98,SSE,158,3.0,13.0,31,0.00,,,0.00,meteohub,2013-06-27 18:47:00,
2013-06-27 13:52:00,90.5,54.9,28.98,West,270,4.0,13.0,30,0.00,,,0.00,meteohub,2013-06-27 18:52:00,
2013-06-27 13:57:00,91.0,55.2,28.98,West,270,5.0,7.0,30,0.00,,,0.00,meteohub,2013-06-27 18:57:00,
2013-06-27 14:02:00,90.5,54.9,28.98,West,270,6.0,7.0,30,0.00,,,0.00,meteohub,2013-06-27 19:02:00,
2013-06-27 14:07:00,90.3,54.7,28.98,North,0,3.0,10.0,30,0.00,,,0.00,meteohub,2013-06-27 19:07:00,
2013-06-27 14:12:00,91.6,54.9,28.98,WNW,292,3.0,10.0,29,0.00,,,0.00,meteohub,2013-06-27 19:12:00,
2013-06-27 14:17:00,91.0,55.2,28.98,WNW,292,4.0,10.0,30,0.00,,,0.00,meteohub,2013-06-27 19:17:00,
2013-06-27 14:22:00,92.8,56.8,28.98,WNW,292,3.0,9.0,30,0.00,,,0.00,meteohub,2013-06-27 19:22:00,
2013-06-27 14:27:00,90.9,55.2,28.98,NNE,22,8.0,9.0,30,0.00,,,0.00,meteohub,2013-06-27 19:27:00,
2013-06-27 14:32:00,91.2,54.5,28.98,SSW,202,9.0,9.0,29,0.00,,,0.00,meteohub,2013-06-27 19:32:00,
2013-06-27 14:37:00,90.7,54.1,28.98,NW,315,3.0,13.0,29,0.00,,,0.00,meteohub,2013-06-27 19:37:00,
2013-06-27 14:42:00,90.9,53.2,28.98,West,270,8.0,13.0,28,0.00,,,0.00,meteohub,2013-06-27 19:42:00,
2013-06-27 14:47:00,91.0,54.3,28.98,West,270,7.0,13.0,29,0.00,,,0.00,meteohub,2013-06-27 19:47:00,
2013-06-27 14:52:00,91.9,55.2,28.98,West,270,3.0,8.0,29,0.00,,,0.00,meteohub,2013-06-27 19:52:00,
2013-06-27 14:57:00,91.9,54.1,28.98,West,270,6.0,8.0,28,0.00,,,0.00,meteohub,2013-06-27 19:57:00,
2013-06-27 15:02:00,92.5,54.7,28.98,NNE,22,3.0,7.0,28,0.00,,,0.00,meteohub,2013-06-27 20:02:00,
2013-06-27 15:07:00,91.8,54.0,28.98,NW,315,6.0,13.0,28,0.00,,,0.00,meteohub,2013-06-27 20:07:00,
2013-06-27 15:12:00,91.6,53.8,28.98,SSE,158,3.0,13.0,28,0.00,,,0.00,meteohub,2013-06-27 20:12:00,
2013-06-27 15:17:00,91.2,53.6,28.98,SSW,202,3.0,11.0,28,0.00,,,0.00,meteohub,2013-06-27 20:17:00,
2013-06-27 15:22:00,91.2,53.6,28.98,NW,315,8.0,11.0,28,0.00,,,0.00,meteohub,2013-06-27 20:22:00,
2013-06-27 15:27:00,92.5,54.7,28.98,NNW,338,2.0,11.0,28,0.00,,,0.00,meteohub,2013-06-27 20:27:00,
2013-06-27 15:32:00,92.8,54.9,28.98,SW,225,3.0,10.0,28,0.00,,,0.00,meteohub,2013-06-27 20:32:00,
2013-06-27 15:38:00,92.7,53.8,28.98,SSE,158,6.0,10.0,27,0.00,,,0.00,meteohub,2013-06-27 20:38:00,
2013-06-27 15:43:00,91.8,53.1,28.98,WNW,292,4.0,7.0,27,0.00,,,0.00,meteohub,2013-06-27 20:43:00,
2013-06-27 15:49:00,91.4,52.7,28.98,North,0,3.0,9.0,27,0.00,,,0.00,meteohub,2013-06-27 20:49:00,
2013-06-27 15:54:00,91.2,52.5,28.98,North,0,4.0,10.0,27,0.00,,,0.00,meteohub,2013-06-27 20:54:00,
2013-06-27 15:59:00,91.6,52.9,28.98,West,270,3.0,10.0,27,0.00,,,0.00,meteohub,2013-06-27 20:59:00,
2013-06-27 16:04:00,91.4,52.7,28.98,NW,315,4.0,10.0,27,0.00,,,0.00,meteohub,2013-06-27 21:04:00,
2013-06-27 16:10:00,89.8,52.3,28.98,WNW,292,4.0,9.0,28,0.00,,,0.00,meteohub,2013-06-27 21:10:00,
2013-06-27 16:15:00,90.3,52.9,28.98,NW,315,2.0,9.0,28,0.00,,,0.00,meteohub,2013-06-27 21:15:00,
2013-06-27 16:21:00,91.2,53.6,28.98,WSW,248,1.0,11.0,28,0.00,,,0.00,meteohub,2013-06-27 21:21:00,
2013-06-27 16:26:00,91.2,53.6,28.98,SW,225,2.0,11.0,28,0.00,,,0.00,meteohub,2013-06-27 21:26:00,
2013-06-27 16:31:00,90.7,53.1,28.98,SW,225,3.0,9.0,28,0.00,,,0.00,meteohub,2013-06-27 21:31:00,
2013-06-27 16:36:00,90.7,53.1,28.98,NNW,338,6.0,9.0,28,0.00,,,0.00,meteohub,2013-06-27 21:36:00,
2013-06-27 16:41:00,90.1,52.7,28.98,NW,315,6.0,9.0,28,0.00,,,0.00,meteohub,2013-06-27 21:41:00,
2013-06-27 16:46:00,88.7,52.3,28.98,West,270,4.0,8.0,29,0.00,,,0.00,meteohub,2013-06-27 21:46:00,
2013-06-27 16:51:00,88.9,51.6,28.98,ESE,112,1.0,10.0,28,0.00,,,0.00,meteohub,2013-06-27 21:51:00,
2013-06-27 16:57:00,89.6,52.2,28.98,NW,315,3.0,10.0,28,0.00,,,0.00,meteohub,2013-06-27 21:57:00,
2013-06-27 17:02:00,89.6,52.2,28.98,NW,315,6.0,10.0,28,0.00,,,0.00,meteohub,2013-06-27 22:02:00,
2013-06-27 17:07:00,89.2,52.9,28.98,NW,315,4.0,10.0,29,0.00,,,0.00,meteohub,2013-06-27 22:07:00,
2013-06-27 17:12:00,89.1,52.7,28.98,WSW,248,6.0,8.0,29,0.00,,,0.00,meteohub,2013-06-27 22:12:00,
2013-06-27 17:18:00,88.7,52.3,28.98,WSW,248,4.0,10.0,29,0.00,,,0.00,meteohub,2013-06-27 22:18:00,
2013-06-27 17:23:00,88.3,52.0,28.98,WNW,292,3.0,10.0,29,0.00,,,0.00,meteohub,2013-06-27 22:23:00,
2013-06-27 17:28:00,88.2,52.0,28.98,NW,315,4.0,9.0,29,0.00,,,0.00,meteohub,2013-06-27 22:28:00,
2013-06-27 17:33:00,87.8,51.6,28.98,North,0,9.0,10.0,29,0.00,,,0.00,meteohub,2013-06-27 22:33:00,
2013-06-27 17:39:00,88.0,51.8,28.98,WSW,248,5.0,13.0,29,0.00,,,0.00,meteohub,2013-06-27 22:39:00,
2013-06-27 17:44:00,87.6,51.4,28.95,NNW,338,8.0,13.0,29,0.00,,,0.00,meteohub,2013-06-27 22:44:00,
2013-06-27 17:49:00,88.3,52.0,28.95,WSW,248,5.0,13.0,29,0.00,,,0.00,meteohub,2013-06-27 22:49:00,
2013-06-27 17:54:00,88.0,51.8,28.95,SSW,202,6.0,10.0,29,0.00,,,0.00,meteohub,2013-06-27 22:54:00,
2013-06-27 17:59:00,87.6,52.3,28.95,NW,315,4.0,9.0,30,0.00,,,0.00,meteohub,2013-06-27 22:59:00,
2013-06-27 18:04:00,87.6,52.3,28.95,NW,315,2.0,7.0,30,0.00,,,0.00,meteohub,2013-06-27 23:04:00,
2013-06-27 18:10:00,88.2,52.9,28.98,WNW,292,6.0,6.0,30,0.00,,,0.00,meteohub,2013-06-27 23:10:00,
2013-06-27 18:15:00,87.8,52.5,28.98,NE,45,0.0,9.0,30,0.00,,,0.00,meteohub,2013-06-27 23:15:00,
2013-06-27 18:20:00,87.3,52.9,28.98,North,0,2.0,9.0,31,0.00,,,0.00,meteohub,2013-06-27 23:20:00,
2013-06-27 18:25:00,87.1,52.0,28.98,NNE,22,1.0,9.0,30,0.00,,,0.00,meteohub,2013-06-27 23:25:00,
2013-06-27 18:30:00,86.0,50.9,28.98,WNW,292,3.0,9.0,30,0.00,,,0.00,meteohub,2013-06-27 23:30:00,
2013-06-27 18:35:00,85.3,51.3,28.98,SSE,158,0.0,9.0,31,0.00,,,0.00,meteohub,2013-06-27 23:35:00,
2013-06-27 18:40:00,85.1,51.1,28.98,NW,315,6.0,7.0,31,0.00,,,0.00,meteohub,2013-06-27 23:40:00,
2013-06-27 18:45:00,84.7,51.6,28.98,NNW,338,4.0,7.0,32,0.00,,,0.00,meteohub,2013-06-27 23:45:00,
2013-06-27 18:50:00,84.7,51.6,28.98,NW,315,0.0,7.0,32,0.00,,,0.00,meteohub,2013-06-27 23:50:00,
2013-06-27 18:55:00,83.8,50.9,28.98,SSW,202,3.0,6.0,32,0.00,,,0.00,meteohub,2013-06-27 23:55:00,
2013-06-27 19:01:00,82.9,50.0,28.98,NE,45,1.0,6.0,32,0.00,,,0.00,meteohub,2013-06-28 00:01:00,
2013-06-27 19:07:00,82.9,50.9,28.98,WNW,292,2.0,10.0,33,0.00,,,0.00,meteohub,2013-06-28 00:07:00,
2013-06-27 19:12:00,83.1,51.1,28.98,WNW,292,6.0,10.0,33,0.00,,,0.00,meteohub,2013-06-28 00:12:00,
2013-06-27 19:17:00,83.3,51.3,28.98,NW,315,3.0,6.0,33,0.00,,,0.00,meteohub,2013-06-28 00:17:00,
2013-06-27 19:22:00,82.9,50.9,28.98,WNW,292,3.0,9.0,33,0.00,,,0.00,meteohub,2013-06-28 00:22:00,
2013-06-27 19:27:00,82.9,50.9,28.98,West,270,2.0,9.0,33,0.00,,,0.00,meteohub,2013-06-28 00:27:00,
2013-06-27 19:32:00,82.6,51.4,28.98,NE,45,1.0,9.0,34,0.00,,,0.00,meteohub,2013-06-28 00:32:00,
2013-06-27 19:37:00,82.4,51.3,28.98,WNW,292,3.0,6.0,34,0.00,,,0.00,meteohub,2013-06-28 00:37:00,
2013-06-27 19:42:00,82.2,51.8,28.98,SSW,202,0.0,6.0,35,0.00,,,0.00,meteohub,2013-06-28 00:42:00,
2013-06-27 19:47:00,82.0,51.6,28.98,WSW,248,1.0,6.0,35,0.00,,,0.00,meteohub,2013-06-28 00:47:00,
2013-06-27 19:52:00,82.0,51.6,28.98,NNW,338,0.0,5.0,35,0.00,,,0.00,meteohub,2013-06-28 00:52:00,
2013-06-27 19:57:00,81.7,52.2,28.98,SW,225,0.0,5.0,36,0.00,,,0.00,meteohub,2013-06-28 00:57:00,
2013-06-27 20:03:00,81.5,52.0,28.98,NNW,338,1.0,5.0,36,0.00,,,0.00,meteohub,2013-06-28 01:03:00,
2013-06-27 20:08:00,81.3,52.5,28.98,NE,45,0.0,5.0,37,0.00,,,0.00,meteohub,2013-06-28 01:08:00,
2013-06-27 20:13:00,81.0,52.2,28.98,West,270,0.0,5.0,37,0.00,,,0.00,meteohub,2013-06-28 01:13:00,
2013-06-27 20:18:00,80.8,52.9,28.98,NW,315,2.0,4.0,38,0.00,,,0.00,meteohub,2013-06-28 01:18:00,
2013-06-27 20:23:00,80.4,53.2,28.98,WSW,248,0.0,3.0,39,0.00,,,0.00,meteohub,2013-06-28 01:23:00,
2013-06-27 20:28:00,80.1,53.6,28.98,SW,225,0.0,2.0,40,0.00,,,0.00,meteohub,2013-06-28 01:28:00,
2013-06-27 20:34:00,80.1,53.6,28.98,SW,225,0.0,2.0,40,0.00,,,0.00,meteohub,2013-06-28 01:34:00,
2013-06-27 20:39:00,79.5,53.1,28.98,SW,225,0.0,2.0,40,0.00,,,0.00,meteohub,2013-06-28 01:39:00,
2013-06-27 20:45:00,79.7,54.0,28.98,SW,225,0.0,0.0,41,0.00,,,0.00,meteohub,2013-06-28 01:45:00,
2013-06-27 20:50:00,79.2,53.4,28.98,SW,225,0.0,0.0,41,0.00,,,0.00,meteohub,2013-06-28 01:50:00,
2013-06-27 20:55:00,78.6,52.9,28.95,SW,225,0.0,0.0,41,0.00,,,0.00,meteohub,2013-06-28 01:55:00,
2013-06-27 21:00:00,77.9,53.1,28.95,SW,225,0.0,0.0,42,0.00,,,0.00,meteohub,2013-06-28 02:00:00,
2013-06-27 21:06:00,77.5,52.7,28.95,SW,225,0.0,0.0,42,0.00,,,0.00,meteohub,2013-06-28 02:06:00,
2013-06-27 21:11:00,77.2,52.9,28.98,SW,225,0.0,0.0,43,0.00,,,0.00,meteohub,2013-06-28 02:11:00,
2013-06-27 21:16:00,76.8,53.2,28.98,SW,225,0.0,0.0,44,0.00,,,0.00,meteohub,2013-06-28 02:16:00,
2013-06-27 21:21:00,76.5,52.9,28.98,SW,225,0.0,0.0,44,0.00,,,0.00,meteohub,2013-06-28 02:21:00,
2013-06-27 21:27:00,76.3,53.4,28.95,SW,225,0.0,0.0,45,0.00,,,0.00,meteohub,2013-06-28 02:27:00,
2013-06-27 21:32:00,75.7,53.4,28.95,SW,225,0.0,0.0,46,0.00,,,0.00,meteohub,2013-06-28 02:32:00,
2013-06-27 21:37:00,75.6,54.0,28.95,SW,225,0.0,0.0,47,0.00,,,0.00,meteohub,2013-06-28 02:37:00,
2013-06-27 21:42:00,75.6,54.0,28.95,SW,225,0.0,0.0,47,0.00,,,0.00,meteohub,2013-06-28 02:42:00,
2013-06-27 21:47:00,75.2,53.6,28.95,SW,225,0.0,0.0,47,0.00,,,0.00,meteohub,2013-06-28 02:47:00,
2013-06-27 21:52:00,74.8,53.8,28.95,SW,225,0.0,0.0,48,0.00,,,0.00,meteohub,2013-06-28 02:52:00,
2013-06-27 21:57:00,74.7,53.6,28.98,SW,225,0.0,0.0,48,0.00,,,0.00,meteohub,2013-06-28 02:57:00,
2013-06-27 22:03:00,74.3,54.5,28.98,SW,225,0.0,0.0,50,0.00,,,0.00,meteohub,2013-06-28 03:03:00,
2013-06-27 22:08:00,74.5,55.2,28.98,SW,225,0.0,1.0,51,0.00,,,0.00,meteohub,2013-06-28 03:08:00,
2013-06-27 22:13:00,74.3,55.0,28.95,SW,225,0.0,2.0,51,0.00,,,0.00,meteohub,2013-06-28 03:13:00,
2013-06-27 22:18:00,74.1,54.9,28.95,SW,225,0.0,2.0,51,0.00,,,0.00,meteohub,2013-06-28 03:18:00,
2013-06-27 22:23:00,73.9,55.2,28.95,SW,225,0.0,1.0,52,0.00,,,0.00,meteohub,2013-06-28 03:23:00,
2013-06-27 22:28:00,73.9,55.2,28.98,South,180,0.0,1.0,52,0.00,,,0.00,meteohub,2013-06-28 03:28:00,
2013-06-27 22:33:00,73.9,55.2,28.98,SW,225,0.0,3.0,52,0.00,,,0.00,meteohub,2013-06-28 03:33:00,
2013-06-27 22:39:00,73.9,55.2,28.98,North,0,0.0,3.0,52,0.00,,,0.00,meteohub,2013-06-28 03:39:00,
2013-06-27 22:44:00,73.8,54.5,28.98,SW,225,0.0,3.0,51,0.00,,,0.00,meteohub,2013-06-28 03:44:00,
2013-06-27 22:49:00,73.8,54.5,28.98,SW,225,0.0,2.0,51,0.00,,,0.00,meteohub,2013-06-28 03:49:00,
2013-06-27 22:54:00,73.8,54.5,28.98,West,270,0.0,2.0,51,0.00,,,0.00,meteohub,2013-06-28 03:54:00,
2013-06-27 23:00:00,73.8,54.0,28.98,WSW,248,0.0,2.0,50,0.00,,,0.00,meteohub,2013-06-28 04:00:00,
2013-06-27 23:01:00,73.8,54.0,28.98,West,270,1.0,3.0,50,0.00,,,0.00,meteohub,2013-06-28 04:01:00,
2013-06-27 23:03:00,73.8,54.0,28.98,WNW,292,2.0,3.0,50,0.00,,,0.00,meteohub,2013-06-28 04:03:00,
2013-06-27 23:09:00,73.8,54.0,28.98,NW,315,4.0,5.0,50,0.00,,,0.00,meteohub,2013-06-28 04:09:00,
2013-06-27 23:14:00,73.8,54.0,28.98,NNW,338,0.0,5.0,50,0.00,,,0.00,meteohub,2013-06-28 04:14:00,
2013-06-27 23:19:00,73.8,54.0,28.98,NNW,338,0.0,4.0,50,0.00,,,0.00,meteohub,2013-06-28 04:19:00,
2013-06-27 23:24:00,73.6,53.2,28.98,NNE,22,0.0,4.0,49,0.00,,,0.00,meteohub,2013-06-28 04:24:00,
2013-06-27 23:29:00,73.6,53.2,28.98,West,270,0.0,6.0,49,0.00,,,0.00,meteohub,2013-06-28 04:29:00,
2013-06-27 23:34:00,73.4,53.1,28.98,West,270,4.0,6.0,49,0.00,,,0.00,meteohub,2013-06-28 04:34:00,
2013-06-27 23:39:00,73.2,53.4,28.98,NW,315,0.0,6.0,50,0.00,,,0.00,meteohub,2013-06-28 04:39:00,
2013-06-27 23:45:00,73.2,52.9,28.98,WSW,248,0.0,6.0,49,0.00,,,0.00,meteohub,2013-06-28 04:45:00,
2013-06-27 23:50:00,73.0,52.7,28.98,West,270,0.0,6.0,49,0.00,,,0.00,meteohub,2013-06-28 04:50:00,
2013-06-27 23:55:00,72.9,53.1,28.98,NNW,338,1.0,6.0,50,0.00,,,0.00,meteohub,2013-06-28 04:55:00,